Year,Month,Day,Hour,Minute,Value (Times are PST for temperature in C)
2013,08,25,00,00,14.80
2013,08,25,00,01,14.80
2013,08,25,00,02,14.80
2013,08,25,00,03,14.80
2013,08,25,00,04,14.80
2013,08,25,00,05,14.80
2013,08,25,00,06,14.80
2013,08,25,00,07,14.70
2013,08,25,00,08,14.70
2013,08,25,00,09,14.70
2013,08,25,00,10,14.70
2013,08,25,00,11,14.70
2013,08,25,00,12,14.70
2013,08,25,00,13,14.70
2013,08,25,00,14,14.70
2013,08,25,00,15,14.60
2013,08,25,00,16,14.60
2013,08,25,00,17,14.60
2013,08,25,00,18,14.50
2013,08,25,00,19,14.50
2013,08,25,00,20,14.50
2013,08,25,00,21,14.40
2013,08,25,00,22,14.40
2013,08,25,00,23,14.40
2013,08,25,00,24,14.40
2013,08,25,00,25,14.50
2013,08,25,00,26,14.50
2013,08,25,00,27,14.50
2013,08,25,00,28,14.50
2013,08,25,00,29,14.50
2013,08,25,00,30,14.50
2013,08,25,00,31,14.50
2013,08,25,00,32,14.50
2013,08,25,00,33,14.50
2013,08,25,00,34,14.50
2013,08,25,00,35,14.50
2013,08,25,00,36,14.50
2013,08,25,00,37,14.50
2013,08,25,00,38,14.50
2013,08,25,00,39,14.50
2013,08,25,00,40,14.50
2013,08,25,00,41,14.40
2013,08,25,00,42,14.40
2013,08,25,00,43,14.40
2013,08,25,00,44,14.40
2013,08,25,00,45,14.30
2013,08,25,00,46,14.30
2013,08,25,00,47,14.30
2013,08,25,00,48,14.30
2013,08,25,00,49,14.30
2013,08,25,00,50,14.30
2013,08,25,00,51,14.20
2013,08,25,00,52,14.20
2013,08,25,00,53,14.20
2013,08,25,00,54,14.20
2013,08,25,00,55,14.20
2013,08,25,00,56,14.20
2013,08,25,00,57,14.20
2013,08,25,00,58,14.20
2013,08,25,00,59,14.10
2013,08,25,01,00,14.10
2013,08,25,01,01,14.10
2013,08,25,01,02,14.10
2013,08,25,01,03,14.10
2013,08,25,01,04,14.10
2013,08,25,01,05,14.10
2013,08,25,01,06,14.10
2013,08,25,01,07,14.10
2013,08,25,01,08,14.10
2013,08,25,01,09,14.00
2013,08,25,01,10,14.00
2013,08,25,01,11,14.00
2013,08,25,01,12,13.90
2013,08,25,01,13,13.90
2013,08,25,01,14,13.80
2013,08,25,01,15,13.80
2013,08,25,01,16,13.80
2013,08,25,01,17,13.80
2013,08,25,01,18,13.70
2013,08,25,01,19,13.70
2013,08,25,01,20,13.60
2013,08,25,01,21,13.60
2013,08,25,01,22,13.60
2013,08,25,01,23,13.60
2013,08,25,01,24,13.60
2013,08,25,01,25,13.60
2013,08,25,01,26,13.60
2013,08,25,01,27,13.60
2013,08,25,01,28,13.60
2013,08,25,01,29,13.60
2013,08,25,01,30,13.50
2013,08,25,01,31,13.50
2013,08,25,01,32,13.40
2013,08,25,01,33,13.40
2013,08,25,01,34,13.40
2013,08,25,01,35,13.30
2013,08,25,01,36,13.30
2013,08,25,01,37,13.30
2013,08,25,01,38,13.30
2013,08,25,01,39,13.30
2013,08,25,01,40,13.30
2013,08,25,01,41,13.30
2013,08,25,01,42,13.30
2013,08,25,01,43,13.30
2013,08,25,01,44,13.30
2013,08,25,01,45,13.30
2013,08,25,01,46,13.30
2013,08,25,01,47,13.40
2013,08,25,01,48,13.40
2013,08,25,01,49,13.50
2013,08,25,01,50,13.50
2013,08,25,01,51,13.50
2013,08,25,01,52,13.60
2013,08,25,01,53,13.60
2013,08,25,01,54,13.60
2013,08,25,01,55,13.60
2013,08,25,01,56,13.60
2013,08,25,01,57,13.60
2013,08,25,01,58,13.60
2013,08,25,01,59,13.50
2013,08,25,02,00,13.50
2013,08,25,02,01,13.40
2013,08,25,02,02,13.40
2013,08,25,02,03,13.50
2013,08,25,02,04,13.50
2013,08,25,02,05,13.60
2013,08,25,02,06,13.60
2013,08,25,02,07,13.60
2013,08,25,02,08,13.60
2013,08,25,02,09,13.70
2013,08,25,02,10,13.70
2013,08,25,02,11,13.70
2013,08,25,02,12,13.60
2013,08,25,02,13,13.60
2013,08,25,02,14,13.60
2013,08,25,02,15,13.70
2013,08,25,02,16,13.70
2013,08,25,02,17,13.70
2013,08,25,02,18,13.60
2013,08,25,02,19,13.70
2013,08,25,02,20,13.60
2013,08,25,02,21,13.60
2013,08,25,02,22,13.70
2013,08,25,02,23,13.60
2013,08,25,02,24,13.60
2013,08,25,02,25,13.60
2013,08,25,02,26,13.60
2013,08,25,02,27,13.60
2013,08,25,02,28,13.60
2013,08,25,02,29,13.60
2013,08,25,02,30,13.60
2013,08,25,02,31,13.60
2013,08,25,02,32,13.50
2013,08,25,02,33,13.50
2013,08,25,02,34,13.50
2013,08,25,02,35,13.50
2013,08,25,02,36,13.40
2013,08,25,02,37,13.40
2013,08,25,02,38,13.40
2013,08,25,02,39,13.40
2013,08,25,02,40,13.40
2013,08,25,02,41,13.40
2013,08,25,02,42,13.40
2013,08,25,02,43,13.40
2013,08,25,02,44,13.40
2013,08,25,02,45,13.40
2013,08,25,02,46,13.40
2013,08,25,02,47,13.40
2013,08,25,02,48,13.50
2013,08,25,02,49,13.50
2013,08,25,02,50,13.50
2013,08,25,02,51,13.50
2013,08,25,02,52,13.60
2013,08,25,02,53,13.60
2013,08,25,02,54,13.60
2013,08,25,02,55,13.60
2013,08,25,02,56,13.60
2013,08,25,02,57,13.60
2013,08,25,02,58,13.60
2013,08,25,02,59,13.60
2013,08,25,03,00,13.60
2013,08,25,03,01,13.60
2013,08,25,03,02,13.60
2013,08,25,03,03,13.60
2013,08,25,03,04,13.60
2013,08,25,03,05,13.60
2013,08,25,03,06,13.60
2013,08,25,03,07,13.60
2013,08,25,03,08,13.60
2013,08,25,03,09,13.60
2013,08,25,03,10,13.60
2013,08,25,03,11,13.60
2013,08,25,03,12,13.60
2013,08,25,03,13,13.60
2013,08,25,03,14,13.60
2013,08,25,03,15,13.60
2013,08,25,03,16,13.60
2013,08,25,03,17,13.60
2013,08,25,03,18,13.60
2013,08,25,03,19,13.60
2013,08,25,03,20,13.60
2013,08,25,03,21,13.60
2013,08,25,03,22,13.60
2013,08,25,03,23,13.60
2013,08,25,03,24,13.60
2013,08,25,03,25,13.70
2013,08,25,03,26,13.60
2013,08,25,03,27,13.60
2013,08,25,03,28,13.60
2013,08,25,03,29,13.60
2013,08,25,03,30,13.60
2013,08,25,03,31,13.50
2013,08,25,03,32,13.50
2013,08,25,03,33,13.40
2013,08,25,03,34,13.30
2013,08,25,03,35,13.30
2013,08,25,03,36,13.30
2013,08,25,03,37,13.20
2013,08,25,03,38,13.20
2013,08,25,03,39,13.20
2013,08,25,03,40,13.20
2013,08,25,03,41,13.20
2013,08,25,03,42,13.20
2013,08,25,03,43,13.20
2013,08,25,03,44,13.20
2013,08,25,03,45,13.20
2013,08,25,03,46,13.20
2013,08,25,03,47,13.20
2013,08,25,03,48,13.20
2013,08,25,03,49,13.20
2013,08,25,03,50,13.10
2013,08,25,03,51,13.10
2013,08,25,03,52,13.10
2013,08,25,03,53,13.00
2013,08,25,03,54,13.00
2013,08,25,03,55,12.90
2013,08,25,03,56,12.90
2013,08,25,03,57,12.80
2013,08,25,03,58,12.80
2013,08,25,03,59,12.80
2013,08,25,04,00,12.70
2013,08,25,04,01,12.70
2013,08,25,04,02,12.70
2013,08,25,04,03,12.70
2013,08,25,04,04,12.60
2013,08,25,04,05,12.60
2013,08,25,04,06,12.60
2013,08,25,04,07,12.60
2013,08,25,04,08,12.60
2013,08,25,04,09,12.60
2013,08,25,04,10,12.60
2013,08,25,04,11,12.60
2013,08,25,04,12,12.60
2013,08,25,04,13,12.50
2013,08,25,04,14,12.50
2013,08,25,04,15,12.50
2013,08,25,04,16,12.50
2013,08,25,04,17,12.50
2013,08,25,04,18,12.40
2013,08,25,04,19,12.40
2013,08,25,04,20,12.40
2013,08,25,04,21,12.40
2013,08,25,04,22,12.40
2013,08,25,04,23,12.40
2013,08,25,04,24,12.40
2013,08,25,04,25,12.50
2013,08,25,04,26,12.50
2013,08,25,04,27,12.60
2013,08,25,04,28,12.60
2013,08,25,04,29,12.70
2013,08,25,04,30,12.80
2013,08,25,04,31,12.80
2013,08,25,04,32,12.80
2013,08,25,04,33,12.80
2013,08,25,04,34,12.90
2013,08,25,04,35,12.90
2013,08,25,04,36,12.90
2013,08,25,04,37,12.90
2013,08,25,04,38,12.90
2013,08,25,04,39,12.90
2013,08,25,04,40,12.90
2013,08,25,04,41,12.90
2013,08,25,04,42,12.90
2013,08,25,04,43,12.90
2013,08,25,04,44,12.90
2013,08,25,04,45,13.00
2013,08,25,04,46,12.90
2013,08,25,04,47,12.90
2013,08,25,04,48,12.90
2013,08,25,04,49,12.90
2013,08,25,04,50,12.90
2013,08,25,04,51,12.90
2013,08,25,04,52,12.90
2013,08,25,04,53,12.90
2013,08,25,04,54,12.90
2013,08,25,04,55,12.90
2013,08,25,04,56,12.90
2013,08,25,04,57,12.90
2013,08,25,04,58,13.00
2013,08,25,04,59,13.10
2013,08,25,05,00,13.10
2013,08,25,05,01,13.20
2013,08,25,05,02,13.30
2013,08,25,05,03,13.30
2013,08,25,05,04,13.40
2013,08,25,05,05,13.40
2013,08,25,05,06,13.40
2013,08,25,05,07,13.50
2013,08,25,05,08,13.50
2013,08,25,05,09,13.60
2013,08,25,05,10,13.60
2013,08,25,05,11,13.60
2013,08,25,05,12,13.60
2013,08,25,05,13,13.60
2013,08,25,05,14,13.60
2013,08,25,05,15,13.60
2013,08,25,05,16,13.60
2013,08,25,05,17,13.60
2013,08,25,05,18,13.60
2013,08,25,05,19,13.60
2013,08,25,05,20,13.60
2013,08,25,05,21,13.60
2013,08,25,05,22,13.60
2013,08,25,05,23,13.50
2013,08,25,05,24,13.50
2013,08,25,05,25,13.50
2013,08,25,05,26,13.50
2013,08,25,05,27,13.60
2013,08,25,05,28,13.60
2013,08,25,05,29,13.60
2013,08,25,05,30,13.70
2013,08,25,05,31,13.70
2013,08,25,05,32,13.70
2013,08,25,05,33,13.70
2013,08,25,05,34,13.70
2013,08,25,05,35,13.70
2013,08,25,05,36,13.80
2013,08,25,05,37,13.80
2013,08,25,05,38,13.80
2013,08,25,05,39,13.70
2013,08,25,05,40,13.70
2013,08,25,05,41,13.70
2013,08,25,05,42,13.70
2013,08,25,05,43,13.70
2013,08,25,05,44,13.70
2013,08,25,05,45,13.70
2013,08,25,05,46,13.70
2013,08,25,05,47,13.60
2013,08,25,05,48,13.60
2013,08,25,05,49,13.60
2013,08,25,05,50,13.60
2013,08,25,05,51,13.50
2013,08,25,05,52,13.50
2013,08,25,05,53,13.40
2013,08,25,05,54,13.40
2013,08,25,05,55,13.40
2013,08,25,05,56,13.40
2013,08,25,05,57,13.30
2013,08,25,05,58,13.30
2013,08,25,05,59,13.30
2013,08,25,06,00,13.30
2013,08,25,06,01,13.20
2013,08,25,06,02,13.20
2013,08,25,06,03,13.20
2013,08,25,06,04,13.20
2013,08,25,06,05,13.20
2013,08,25,06,06,13.20
2013,08,25,06,07,13.10
2013,08,25,06,08,13.10
2013,08,25,06,09,13.00
2013,08,25,06,10,13.00
2013,08,25,06,11,12.90
2013,08,25,06,12,12.90
2013,08,25,06,13,12.80
2013,08,25,06,14,12.80
2013,08,25,06,15,12.70
2013,08,25,06,16,12.70
2013,08,25,06,17,12.70
2013,08,25,06,18,12.70
2013,08,25,06,19,12.70
2013,08,25,06,20,12.70
2013,08,25,06,21,12.70
2013,08,25,06,22,12.70
2013,08,25,06,23,12.70
2013,08,25,06,24,12.70
2013,08,25,06,25,12.60
2013,08,25,06,26,12.60
2013,08,25,06,27,12.60
2013,08,25,06,28,12.50
2013,08,25,06,29,12.50
2013,08,25,06,30,12.40
2013,08,25,06,31,12.30
2013,08,25,06,32,12.30
2013,08,25,06,33,12.20
2013,08,25,06,34,12.20
2013,08,25,06,35,12.20
2013,08,25,06,36,12.10
2013,08,25,06,37,12.10
2013,08,25,06,38,12.10
2013,08,25,06,39,12.10
2013,08,25,06,40,12.00
2013,08,25,06,41,12.00
2013,08,25,06,42,11.90
2013,08,25,06,43,11.90
2013,08,25,06,44,11.90
2013,08,25,06,45,11.90
2013,08,25,06,46,11.90
2013,08,25,06,47,11.90
2013,08,25,06,48,11.90
2013,08,25,06,49,12.00
2013,08,25,06,50,11.90
2013,08,25,06,51,11.90
2013,08,25,06,52,11.90
2013,08,25,06,53,11.90
2013,08,25,06,54,11.90
2013,08,25,06,55,11.90
2013,08,25,06,56,11.90
2013,08,25,06,57,11.90
2013,08,25,06,58,11.90
2013,08,25,06,59,11.90
2013,08,25,07,00,11.90
2013,08,25,07,01,11.90
2013,08,25,07,02,11.90
2013,08,25,07,03,11.90
2013,08,25,21,55,16.50
2013,08,25,21,56,16.50
2013,08,25,21,57,16.40
2013,08,25,21,58,16.40
2013,08,25,21,59,16.30
2013,08,25,22,00,16.20
2013,08,25,22,01,16.20
2013,08,25,22,02,16.10
2013,08,25,22,03,16.00
2013,08,25,22,04,16.00
2013,08,25,22,05,15.90
2013,08,25,22,06,15.80
2013,08,25,22,07,15.70
2013,08,25,22,08,15.70
2013,08,25,22,09,15.60
2013,08,25,22,10,15.50
2013,08,25,22,11,15.30
2013,08,25,22,12,15.20
2013,08,25,22,13,15.10
2013,08,25,22,14,15.00
2013,08,25,22,15,14.90
2013,08,25,22,16,14.80
2013,08,25,22,17,14.70
2013,08,25,22,18,14.70
2013,08,25,22,19,14.60
2013,08,25,22,20,14.60
2013,08,25,22,21,14.60
2013,08,25,22,22,14.60
2013,08,25,22,23,14.60
2013,08,25,22,24,14.60
2013,08,25,22,25,14.60
2013,08,25,22,26,14.60
2013,08,25,22,27,14.60
2013,08,25,22,28,14.60
2013,08,25,22,29,14.50
2013,08,25,22,30,14.50
2013,08,25,22,31,14.50
2013,08,25,22,32,14.50
2013,08,25,22,33,14.40
2013,08,25,22,34,14.40
2013,08,25,22,35,14.40
2013,08,25,22,36,14.30
2013,08,25,22,37,14.30
2013,08,25,22,38,14.20
2013,08,25,22,39,14.20
2013,08,25,22,40,14.20
2013,08,25,22,41,14.10
2013,08,25,22,42,14.10
2013,08,25,22,43,14.10
2013,08,25,22,44,14.10
2013,08,25,22,45,14.10
2013,08,25,22,46,14.00
2013,08,25,22,47,14.00
2013,08,25,22,48,14.00
2013,08,25,22,49,14.00
2013,08,25,22,50,14.00
2013,08,25,22,51,14.00
2013,08,25,22,52,14.00
2013,08,25,22,53,14.00
2013,08,25,22,54,14.00
2013,08,25,22,55,14.00
2013,08,25,22,56,14.00
2013,08,25,22,57,14.00
2013,08,25,22,58,14.00
2013,08,25,22,59,14.00
2013,08,25,23,00,14.00
2013,08,25,23,01,14.00
2013,08,25,23,02,14.00
2013,08,25,23,03,14.00
2013,08,25,23,04,13.90
2013,08,25,23,05,13.90
2013,08,25,23,06,13.90
2013,08,25,23,07,13.90
2013,08,25,23,08,13.90
2013,08,25,23,09,13.90
2013,08,25,23,10,13.80
2013,08,25,23,11,13.80
2013,08,25,23,12,13.80
2013,08,25,23,13,13.80
2013,08,25,23,14,13.80
2013,08,25,23,15,13.80
2013,08,25,23,16,13.70
2013,08,25,23,17,13.70
2013,08,25,23,18,13.70
2013,08,25,23,19,13.60
2013,08,25,23,20,13.60
2013,08,25,23,21,13.50
2013,08,25,23,22,13.50
2013,08,25,23,23,13.40
2013,08,25,23,24,13.40
2013,08,25,23,25,13.40
2013,08,25,23,26,13.30
2013,08,25,23,27,13.30
2013,08,25,23,28,13.30
2013,08,25,23,29,13.30
2013,08,25,23,30,13.30
2013,08,25,23,31,13.30
2013,08,25,23,32,13.30
2013,08,25,23,33,13.30
2013,08,25,23,34,13.30
2013,08,25,23,35,13.30
2013,08,25,23,36,13.30
2013,08,25,23,37,13.30
2013,08,25,23,38,13.30
2013,08,25,23,39,13.30
2013,08,25,23,40,13.40
2013,08,25,23,41,13.40
2013,08,25,23,42,13.40
2013,08,25,23,43,13.50
2013,08,25,23,44,13.50
2013,08,25,23,45,13.50
2013,08,25,23,46,13.60
2013,08,25,23,47,13.60
2013,08,25,23,48,13.60
2013,08,25,23,49,13.70
2013,08,25,23,50,13.70
2013,08,25,23,51,13.70
2013,08,25,23,52,13.70
2013,08,25,23,53,13.70
2013,08,25,23,54,13.70
2013,08,25,23,55,13.80
2013,08,25,23,56,13.80
2013,08,25,23,57,13.80
2013,08,25,23,58,13.90
2013,08,25,23,59,14.00
